Wind_Speed
7 7 7 7 7 7 7 7 7 6 6 6 7 7 7 7 7 8 7 7 7 6 6 6 5 6 7 7 7 8 8 9 10 10 10 12 13 14 16 18 19 20 21 22
8 8 8 7 8 8 8 8 7 6 6 7 7 8 8 7 8 7 7 7 7 7 7 6 6 6 7 7 7 8 9 9 9 10 11 12 12 13 14 16 17 19 20 22
8 8 8 8 8 9 9 9 9 8 8 8 9 10 9 8 8 8 8 8 9 9 9 8 7 7 7 7 7 7 8 9 10 10 9 10 12 13 15 16 17 18 20 21
10 9 9 9 9 9 10 10 10 10 10 10 10 10 10 9 9 9 9 10 11 11 10 10 9 8 8 8 8 8 8 8 8 9 10 11 13 15 16 17 18 19 21 22
12 11 10 10 11 11 11 10 11 11 11 10 11 11 12 11 11 11 11 11 11 10 10 10 10 10 9 9 9 9 9 9 11 12 13 14 15 16 17 19 20 21 22 24
15 14 13 13 13 13 14 13 13 13 12 12 12 12 11 11 12 12 12 12 12 12 11 11 11 11 11 11 11 11 12 13 13 14 15 16 17 18 19 20 21 22 24 25
18 18 17 17 16 17 16 16 15 15 15 14 14 14 14 13 13 13 13 13 13 13 13 13 13 13 14 13 14 14 15 15 16 17 17 18 19 20 21 23 24 25 26 27
22 21 21 21 20 20 20 19 19 18 18 18 17 17 17 16 16 16 15 15 15 15 15 15 15 16 16 16 16 16 17 18 19 19 20 20 21 23 24 25 26 27 28 29
25 24 25 24 24 23 23 23 22 22 22 21 20 20 19 19 19 19 18 18 18 18 18 18 18 18 18 19 19 19 19 20 21 21 21 23 24 25 27 27 28 28 29 30
28 26 27 27 26 26 26 25 25 25 24 24 23 23 22 22 22 22 21 21 21 21 21 21 21 21 21 21 22 22 22 23 23 23 24 26 27 28 28 29 29 30 30 31
31 29 29 29 29 29 29 28 27 27 26 25 25 25 25 25 25 24 24 24 24 24 24 23 23 24 24 24 25 25 25 26 26 27 28 29 29 30 31 32 32 33 33 33
33 32 33 31 31 31 31 30 30 29 28 28 28 28 27 27 27 27 26 26 26 26 26 26 26 26 27 27 27 27 28 28 29 29 30 31 32 33 34 34 35 35 36 36
37 36 35 34 33 33 33 32 31 30 30 30 29 29 29 29 29 28 28 28 28 29 29 29 29 29 30 29 30 30 30 30 31 31 32 34 35 36 37 37 38 38 39 39
40 39 37 36 36 35 35 34 33 31 31 30 30 30 30 30 30 30 30 31 31 31 31 32 32 32 32 32 32 31 32 32 33 34 35 36 37 38 38 39 39 40 41 41
41 40 39 38 38 37 36 35 34 32 32 31 31 31 31 31 30 30 31 31 32 32 33 33 34 34 34 33 33 33 34 34 35 36 37 38 38 39 40 40 40 41 41 41
41 41 40 39 38 37 36 35 35 33 33 33 33 32 32 32 32 32 32 32 33 33 34 35 35 35 34 34 34 35 35 36 37 37 38 39 40 41 41 41 41 42 42 42
41 40 39 39 38 38 37 36 35 35 34 34 34 34 33 33 34 34 34 34 34 34 34 34 34 35 35 35 35 36 37 37 38 39 40 41 41 42 42 42 42 42 42 42
42 41 40 39 38 37 37 37 36 36 35 35 34 34 33 34 34 34 34 34 34 34 34 34 34 35 36 36 37 37 38 38 39 40 41 42 42 42 42 42 42 42 42 43
41 41 40 39 38 37 36 36 36 36 36 36 35 34 34 34 34 34 34 34 34 35 35 35 35 36 36 37 38 38 38 39 39 40 41 42 42 41 41 41 41 41 42 43
41 40 39 39 38 37 37 37 37 37 37 36 36 35 35 35 35 35 35 34 34 35 35 35 36 36 37 38 38 39 39 40 40 40 41 41 41 40 40 40 41 41 41 42
40 39 39 39 38 38 37 37 37 37 37 37 36 36 36 36 35 35 36 36 36 36 36 36 36 37 38 38 38 39 39 39 39 39 40 40 40 40 40 39 40 40 41 41
39 38 38 38 38 38 38 37 37 36 36 36 36 36 36 36 35 35 35 36 36 36 37 37 37 37 38 37 37 38 38 38 39 39 40 40 39 38 38 38 39 40 40 41
38 37 37 37 37 37 37 37 37 36 35 35 35 36 35 35 35 34 34 35 35 35 36 36 37 37 37 36 36 37 37 38 38 39 39 38 38 37 37 38 38 39 39 39
37 36 37 37 37 36 37 37 37 37 36 36 35 35 35 35 34 34 34 34 34 34 35 35 35 35 35 35 35 35 36 36 36 37 37 36 36 36 36 37 37 38 38 37
37 37 36 36 36 37 37 37 37 37 37 36 36 36 36 35 34 34 34 33 33 33 34 34 34 34 34 33 33 34 34 35 35 36 36 35 35 35 35 36 36 36 36 36
40 39 38 38 37 37 37 36 37 37 37 37 36 36 35 35 34 34 33 33 33 33 33 33 33 33 32 32 32 33 34 34 35 35 35 34 34 34 34 34 35 35 35 34
41 40 39 38 38 37 37 36 36 36 36 35 34 34 34 34 33 33 32 32 32 32 32 32 32 32 32 32 32 33 34 34 34 34 34 33 33 33 33 33 33 34 33 33
Wind_Direction
328 324 321 321 324 321 322 320 312 307 304 300 301 301 303 307 314 318 320 326 329 329 323 316 310 311 312 307 299 290 286 283 281 279 277 276 274 273 272 271 270 270 270 270
318 313 308 309 310 314 317 323 323 316 308 303 302 301 299 302 305 309 315 318 321 321 315 313 310 311 316 315 308 297 291 288 282 281 279 279 276 277 277 276 275 274 275 275
321 313 309 308 306 309 310 309 312 312 305 299 299 298 294 294 297 301 306 306 307 310 307 306 301 303 307 311 315 309 300 293 292 292 289 286 281 282 281 280 279 279 280 281
316 314 319 319 312 306 306 305 306 306 302 297 296 297 294 293 292 293 298 302 301 301 298 296 294 297 303 309 309 310 308 301 295 293 293 292 289 290 291 288 286 286 287 288
306 307 309 311 311 309 308 306 305 307 305 300 298 295 292 291 289 288 292 297 300 300 299 296 293 294 298 304 307 304 303 301 300 298 297 298 296 295 294 292 291 291 292 291
298 300 302 304 303 305 306 304 300 298 296 297 300 298 294 292 290 288 287 288 290 293 296 295 292 292 293 294 297 296 296 298 298 298 298 300 301 299 297 296 297 295 294 292
292 294 295 298 297 297 299 300 296 291 289 291 292 292 291 290 290 289 286 285 285 286 287 288 288 288 288 291 293 295 296 296 296 297 298 298 300 302 302 300 298 297 296 295
284 286 289 289 290 290 290 289 289 287 284 284 285 286 286 285 285 285 284 282 282 284 284 286 287 287 287 288 292 295 297 298 299 300 302 302 301 303 305 305 303 301 299 297
281 282 284 284 285 286 284 284 284 283 282 281 281 282 283 283 283 282 281 280 280 280 280 283 285 287 287 289 291 294 297 299 300 300 302 303 304 305 305 304 303 302 301 299
277 278 279 281 281 281 281 282 283 282 281 280 278 279 280 281 281 280 279 278 279 280 280 280 282 285 286 287 289 292 295 297 298 298 300 302 303 305 305 305 304 303 303 302
276 276 276 277 278 278 278 279 280 280 280 279 278 278 278 279 278 277 276 276 278 280 280 279 280 283 285 287 289 292 293 295 297 297 299 300 302 303 304 305 305 303 302 302
274 274 274 274 274 275 276 276 276 277 278 278 277 276 276 276 276 275 274 274 276 277 278 279 280 282 284 285 287 290 292 294 295 296 297 299 301 302 303 303 303 302 302 301
271 272 273 274 274 273 273 274 275 277 277 276 276 275 275 274 274 274 273 273 275 276 276 277 279 281 281 283 286 288 290 292 294 295 297 299 300 301 302 302 302 302 301 301
271 271 271 272 273 273 273 273 274 275 276 275 275 275 275 275 274 273 273 273 274 275 276 277 278 280 280 282 284 287 289 292 293 294 296 298 299 300 301 302 302 302 302 302
270 271 270 269 270 272 272 273 273 273 272 273 274 274 274 274 274 274 273 273 274 275 276 277 278 279 280 281 283 286 289 291 293 294 296 297 299 300 301 301 301 301 302 302
269 270 271 270 269 270 270 271 271 270 270 271 272 273 274 273 273 274 274 274 275 276 278 278 278 279 280 282 283 286 289 291 293 294 296 297 299 300 300 300 300 300 301 302
269 269 269 269 269 270 270 270 269 269 269 270 271 272 273 272 272 272 273 274 275 276 277 279 279 279 280 281 284 286 288 290 292 294 296 298 299 300 300 300 299 300 300 301
268 268 269 270 270 271 269 268 268 268 269 270 270 272 272 271 270 271 272 274 275 275 277 278 279 280 281 282 284 286 288 290 292 294 296 298 299 300 300 300 300 300 300 302
268 268 268 268 268 269 268 267 267 267 268 269 270 271 271 271 271 271 272 274 276 276 276 277 279 281 282 284 285 286 287 290 292 294 296 299 300 301 301 301 301 301 302 303
267 267 267 267 267 267 268 267 267 267 267 267 268 269 270 271 271 271 271 274 276 277 276 278 280 282 283 284 285 286 287 289 292 294 297 299 300 301 301 301 301 302 303 304
266 267 266 265 265 266 266 265 265 265 266 266 267 268 269 269 271 271 271 273 275 276 277 278 281 283 284 285 285 286 288 290 292 295 297 299 300 300 301 301 302 302 303 304
266 266 265 264 263 264 264 264 264 263 264 264 265 266 267 268 269 271 272 274 275 276 277 279 281 283 283 284 285 287 289 291 294 296 298 298 299 300 301 301 302 303 304 304
266 265 265 264 264 264 263 263 262 262 263 264 265 265 266 267 268 270 271 273 275 276 278 280 282 282 283 284 285 287 290 292 295 297 298 299 299 299 300 301 303 304 305 306
265 264 264 264 264 264 262 261 260 260 261 263 264 265 266 267 269 270 271 273 275 276 277 279 281 282 283 284 285 288 290 293 296 298 299 299 299 299 300 302 304 306 306 307
263 264 264 264 264 264 264 262 260 260 261 263 264 266 267 267 268 270 270 272 275 277 278 278 279 280 281 283 285 288 290 293 296 298 298 299 299 299 301 304 306 307 308 308
262 263 263 263 264 265 265 263 262 261 262 263 265 266 266 267 269 270 271 272 274 276 277 278 279 279 281 283 285 288 291 294 296 297 298 299 299 300 302 304 307 308 308 308
261 261 262 263 264 265 265 264 262 260 260 262 264 265 266 267 268 269 270 271 273 276 277 277 277 278 280 283 286 289 292 294 296 297 298 300 300 301 303 304 306 307 308 308
Height
5687 5684 5682 5681 5680 5677 5675 5673 5671 5670 5668 5668 5666 5665 5663 5661 5659 5657 5655 5653 5651 5649 5647 5646 5644 5643 5641 5639 5638 5636 5635 5634 5634 5633 5632 5631 5630 5630 5629 5629 5628 5627 5627 5626
5685 5683 5681 5679 5678 5676 5674 5672 5670 5668 5667 5666 5664 5662 5661 5659 5657 5655 5653 5651 5650 5648 5646 5644 5643 5641 5639 5638 5636 5634 5633 5632 5631 5630 5629 5628 5627 5626 5625 5624 5623 5622 5621 5619
5684 5681 5680 5678 5676 5674 5673 5671 5669 5667 5667 5664 5662 5660 5658 5657 5655 5653 5651 5650 5648 5646 5644 5643 5641 5639 5638 5636 5634 5632 5631 5630 5629 5627 5626 5625 5624 5623 5621 5620 5618 5616 5615 5613
5681 5680 5678 5679 5674 5672 5670 5669 5667 5665 5663 5661 5659 5657 5656 5654 5652 5651 5649 5647 5645 5644 5642 5641 5639 5638 5636 5634 5632 5631 5629 5627 5626 5625 5623 5622 5620 5618 5616 5614 5612 5610 5608 5606
5678 5676 5675 5675 5672 5669 5667 5666 5664 5662 5660 5658 5656 5654 5653 5651 5649 5648 5646 5644 5643 5641 5639 5638 5637 5635 5634 5632 5630 5628 5627 5625 5623 5621 5620 5617 5615 5613 5611 5609 5607 5604 5601 5599
5674 5672 5671 5672 5669 5665 5665 5663 5661 5658 5656 5654 5653 5651 5650 5648 5646 5644 5643 5641 5640 5638 5637 5635 5634 5632 5631 5629 5627 5625 5623 5621 5619 5617 5615 5613 5611 5608 5606 5603 5600 5597 5595 5592
5670 5667 5666 5667 5664 5662 5661 5660 5656 5654 5652 5650 5649 5648 5647 5644 5643 5641 5640 5638 5636 5635 5633 5632 5630 5629 5627 5625 5623 5622 5619 5617 5615 5613 5611 5608 5606 5603 5600 5597 5594 5591 5588 5585
5663 5662 5663 5660 5658 5656 5655 5652 5650 5648 5647 5646 5644 5643 5641 5640 5638 5637 5636 5634 5633 5631 5629 5628 5626 5624 5623 5621 5619 5617 5615 5612 5610 5608 5605 5603 5600 5597 5594 5590 5587 5584 5580 5577
5657 5658 5655 5652 5651 5649 5647 5646 5644 5642 5641 5640 5639 5637 5636 5634 5633 5632 5630 5629 5627 5626 5625 5623 5621 5620 5618 5616 5614 5612 5610 5607 5605 5602 5600 5597 5594 5591 5587 5584 5580 5576 5573 5569
5647 5649 5646 5644 5642 5641 5639 5638 5636 5635 5634 5633 5632 5631 5630 5628 5627 5625 5624 5623 5622 5620 5619 5617 5616 5614 5612 5610 5608 5606 5604 5601 5599 5596 5594 5591 5587 5584 5580 5577 5573 5569 5565 5561
5637 5638 5636 5635 5634 5632 5631 5630 5628 5627 5626 5624 5623 5623 5622 5620 5619 5618 5616 5615 5614 5613 5612 5610 5609 5607 5606 5604 5601 5599 5597 5594 5592 5589 5586 5583 5580 5576 5573 5569 5565 5561 5557 5552
5627 5627 5625 5625 5624 5623 5621 5620 5619 5618 5617 5616 5615 5614 5613 5612 5611 5610 5609 5607 5606 5606 5604 5603 5601 5600 5598 5596 5594 5592 5589 5587 5584 5581 5578 5575 5572 5568 5564 5560 5556 5552 5547 5543
5614 5614 5613 5613 5613 5612 5611 5610 5610 5609 5608 5607 5606 5604 5603 5603 5602 5601 5600 5599 5598 5597 5596 5594 5593 5591 5589 5588 5585 5583 5581 5578 5575 5572 5569 5566 5562 5559 5555 5551 5546 5542 5537 5532
5601 5601 5602 5602 5601 5600 5600 5599 5599 5599 5598 5597 5596 5595 5594 5593 5592 5591 5590 5590 5588 5587 5586 5585 5584 5582 5580 5578 5576 5574 5571 5569 5566 5563 5560 5557 5553 5549 5545 5540 5536 5531 5526 5521
5589 5588 5589 5589 5589 5589 5588 5588 5588 5588 5587 5587 5586 5585 5584 5583 5582 5581 5580 5579 5578 5577 5576 5575 5574 5572 5570 5568 5566 5564 5562 5559 5557 5554 5550 5546 5542 5538 5534 5529 5525 5520 5515 5510
5576 5576 5576 5577 5577 5577 5577 5576 5576 5577 5576 5576 5575 5574 5573 5573 5572 5571 5570 5569 5568 5567 5566 5564 5563 5561 5560 5558 5557 5554 5552 5549 5546 5543 5540 5536 5531 5527 5523 5518 5514 5509 5504 5499
5562 5563 5563 5563 5564 5564 5564 5564 5564 5564 5564 5564 5563 5563 5562 5561 5561 5560 5559 5558 5557 5556 5555 5554 5552 5551 5549 5548 5546 5544 5541 5539 5536 5532 5528 5524 5520 5516 5511 5507 5502 5497 5492 5488
5548 5549 5550 5550 5551 5551 5551 5552 5552 5552 5552 5552 5552 5551 5551 5550 5549 5548 5548 5547 5546 5545 5544 5543 5541 5540 5539 5537 5535 5533 5530 5527 5524 5521 5517 5513 5509 5504 5499 5495 5490 5485 5481 5476
5534 5535 5536 5537 5537 5538 5538 5539 5539 5539 5540 5540 5540 5540 5539 5539 5538 5537 5536 5536 5535 5534 5533 5532 5530 5529 5527 5525 5524 5521 5519 5516 5513 5509 5506 5501 5497 5492 5488 5483 5478 5474 5469 5464
5521 5521 5522 5523 5524 5525 5525 5526 5526 5527 5527 5527 5527 5527 5527 5527 5526 5525 5525 5524 5524 5523 5522 5521 5519 5518 5516 5514 5512 5510 5507 5504 5501 5498 5494 5490 5485 5481 5476 5472 5467 5463 5458 5453
5508 5508 5509 5510 5511 5512 5512 5513 5513 5514 5514 5515 5515 5515 5515 5515 5514 5514 5513 5513 5512 5511 5511 5509 5508 5506 5504 5502 5500 5498 5495 5492 5489 5486 5482 5478 5474 5469 5465 5460 5456 5451 5447 5442
5495 5495 5496 5496 5497 5498 5499 5500 5500 5501 5501 5502 5502 5502 5502 5502 5502 5502 5501 5501 5500 5500 5499 5498 5496 5495 5492 5490 5488 5486 5484 5481 5478 5474 5470 5466 5462 5458 5454 5450 5445 5441 5436 5430
5481 5482 5483 5484 5484 5485 5486 5487 5487 5488 5489 5489 5490 5490 5490 5490 5490 5490 5490 5489 5488 5488 5487 5486 5484 5483 5481 5479 5477 5475 5472 5469 5466 5463 5459 5455 5451 5447 5443 5439 5435 5430 5425 5419
5469 5470 5470 5471 5472 5472 5473 5474 5474 5475 5476 5477 5477 5477 5477 5477 5478 5477 5477 5477 5477 5476 5475 5474 5472 5471 5469 5467 5465 5463 5461 5458 5455 5452 5448 5444 5440 5437 5433 5429 5424 5419 5414 5409
5456 5457 5457 5458 5459 5459 5460 5461 5461 5462 5463 5464 5465 5465 5465 5466 5466 5466 5465 5465 5465 5464 5464 5462 5461 5459 5458 5456 5454 5452 5450 5447 5444 5441 5437 5434 5430 5426 5422 5418 5414 5409 5404 5400
5443 5443 5444 5445 5446 5446 5447 5448 5448 5449 5450 5451 5452 5453 5453 5453 5454 5454 5454 5454 5453 5453 5452 5451 5450 5449 5447 5446 5444 5442 5439 5436 5433 5430 5427 5423 5420 5416 5412 5408 5404 5399 5395 5390
5429 5430 5431 5432 5433 5433 5434 5435 5436 5437 5438 5439 5440 5441 5441 5441 5442 5442 5442 5442 5442 5442 5441 5440 5439 5438 5437 5435 5433 5431 5429 5426 5423 5420 5416 5413 5410 5406 5402 5398 5394 5390 5386 5382